Weather in Peshchera

Russia / Kirov Oblast     59°11′26″N   52°19′43″E
temp.,
°C
wind,
m/s
gust,
m/s
humid.,
%
clouds,
%
prec.,
mm/h
press.,
hPa
HPBL,
m
21 april, wed
wed2100:00−1se22840 0.0 103117
03:00−1se23814 0.0 103150
06:00+3sse26625 0.0 1031167
09:00+9sse473769 0.0 1029920
12:00+11sse5832100 0.0 10271377
15:00+11sse51036100 0.0 10251419
18:00+9sse51244100 0.0 10251202
21:00+7sse51449100 0.0 10241174
22 april, thu
thu2200:00+5s61563100 0.0 10231140
03:00+3sse61494100 0.1 1022864
06:00+3s51396100 0.1 1021773
09:00+3s61496100 0.2 1022837
12:00+4s51290100 0.0 1023880
15:00+5s51089100 0.1 1024877
18:00+6s51185100 0.0 1024628
21:00+5s51391100 0.1 1024764
23 april, fri
fri2300:00+5s5129099 0.0 1024658
03:00+5s4992100 0.0 1025507
06:00+5s3793100 0.0 1025382
09:00+8ssw457585 0.0 1026839
12:00+8ssw3473100 0.1 10261011
15:00+7ssw2479100 0.1 1026586
18:00+7s2580100 0.1 1026313
21:00+6sse3789100 0.1 1027286
24 april, sat
sat2400:00+5se2594100 0.1 1026227
03:00+4se2593100 0.1 1025213
06:00+4ese2688100 0.0 1024312
09:00+6e357575 0.0 1023577
12:00+9ese4557100 0.1 10201417
15:00+8e3563100 0.1 10191075
18:00+6e3781100 0.0 1017622
21:00+5e3790100 0.0 1016505
25 april, sun
sun2500:00+5e2696100 0.9 1013421
03:00+5ese3796100 1.3 1012422
06:00+5se3694100 0.9 1010860
09:00+5se4894100 1.6 1008906
12:00+6se4888100 0.1 1007839
15:00+5se3695100 1.3 1006937
18:00+3w51293100 3.8 10081084
21:00+3ssw31192100 4.1 1009429